FW2486 Weather Reports


Display with metric or nautical units.
time (UTC)temp
F
wind
direction
speed
MPH
gust
MPH
rain 1hr
in
rain 24hr
in
rain mn
in
humidity
%
barometer
mb
20260906093034 52 135 3.0 5.0 0.04 0.05 0.02 97 1019.7
20260906091533 51 120 3.0 5.0 0.02 0.03 0.01 97 1019.6
20260906090037 51 186 2.0 4.0 0.01 0.02 0.00 97 1019.6
20260906084535 51 202 1.0 5.0 0.00 0.01 0.00 97 1019.7
20260906083034 51 184 1.0 4.0 0.00 0.01 0.00 97 1019.7
20260906081535 51 121 3.0 7.0 0.00 0.01 0.00 97 1019.6
20260906080128 51 158 2.0 4.0 0.00 0.01 0.00 97 1019.5
20260906074533 51 132 2.0 5.0 0.00 0.01 0.00 97 1019.4
20260906070031 50 181 2.0 4.0 0.00 0.01 0.00 97 1019.7
20260906064532 50 120 2.0 4.0 0.00 0.01 0.01 96 1019.7
20260906063032 50 157 0.0 2.0 0.00 0.01 0.01 96 1019.9
20260906061529 51 142 2.0 4.0 0.00 0.02 0.01 96 1020.0
20260906060035 51 162 2.0 6.0 0.00 0.04 0.01 96 1020.0
20260906054532 51 149 2.0 4.0 0.00 0.04 0.01 96 1020.0
20260906053032 51 134 2.0 5.0 0.00 0.04 0.01 96 1020.1
20260906050032 52 115 2.0 5.0 0.00 0.04 0.01 96 1020.2
20260906044538 52 179 3.0 7.0 0.00 0.04 0.01 96 1020.3
20260906043034 52 157 1.0 4.0 0.00 0.04 0.01 96 1020.4
20260906041606 52 166 2.0 5.0 0.00 0.04 0.01 96 1020.3
20260906040141 52 147 2.0 6.0 0.00 0.04 0.01 95 1020.2
20260906034532 52 130 1.0 5.0 0.00 0.04 0.01 95 1020.1
20260906033035 52 156 1.0 3.0 0.00 0.04 0.01 94 1019.9
20260906031534 52 151 2.0 4.0 0.00 0.04 0.01 94 1019.8
20260906030034 53 121 0.0 3.0 0.00 0.04 0.01 93 1019.6
20260906023034 55 206 0.0 3.0 0.00 0.04 0.01 91 1019.6
20260906021533 56 219 1.0 4.0 0.00 0.04 0.01 89 1019.6
20260906020034 58 202 0.0 2.0 0.00 0.04 0.01 86 1019.6
20260906014534 62 202 2.0 2.0 0.00 0.04 0.01 83 1019.5
20260906013040 64 193 2.0 3.0 0.00 0.04 0.01 84 1019.5
20260906011531 64 158 2.0 4.0 0.00 0.04 0.01 84 1019.6
20260906004536 64 126 2.0 4.0 0.00 0.04 0.01 81 1019.9
20260906003110 65 113 3.0 5.0 0.00 0.04 0.01 83 1019.9
20260906001530 65 137 2.0 6.0 0.00 0.04 0.01 84 1020.0
20260906000031 62 126 3.0 6.0 0.00 0.04 0.01 87 1020.1
20260905234534 60 151 3.0 8.0 0.00 0.04 0.01 87 1020.1
20260905233034 61 180 1.0 4.0 0.01 0.04 0.01 84 1020.1
20260905230033 61 200 2.0 7.0 0.01 0.04 0.01 83 1020.0
20260905223035 63 228 3.0 7.0 0.00 0.03 0.00 75 1019.9
20260905221533 64 285 3.0 5.0 0.00 0.03 0.00 73 1019.7
20260905220033 66 310 4.0 7.0 0.00 0.03 0.00 70 1019.7
20260905213032 67 214 1.0 7.0 0.00 0.03 0.00 72 1019.8
20260905211643 66 185 1.0 5.0 0.00 0.03 0.00 74 1020.0
20260905210029 65 153 3.0 6.0 0.00 0.03 0.00 75 1020.2
20260905204533 65 267 1.0 4.0 0.00 0.03 0.00 75 1020.2
20260905203033 64 327 2.0 5.0 0.00 0.03 0.00 75 1020.3
20260905201607 64 291 1.0 3.0 0.00 0.03 0.00 76 1020.4
20260905194533 62 323 3.0 6.0 0.00 0.03 0.00 79 1020.6
20260905193031 60 345 3.0 7.0 0.00 0.03 0.00 81 1020.8
20260905191534 60 359 4.0 9.0 0.00 0.03 0.00 82 1020.9
20260905190034 59 358 4.0 9.0 0.00 0.03 0.00 83 1021.0
20260905183035 58 360 5.0 10.0 0.00 0.03 0.00 86 1021.1
20260905181606 58 348 7.0 14.0 0.00 0.03 0.00 90 1021.3
20260905180033 58 327 5.0 12.0 0.00 0.03 0.00 94 1021.4
20260905174604 57 53 0.0 3.0 0.00 0.03 0.00 96 1021.5
20260905171534 55 96 1.0 3.0 0.00 0.03 0.00 98 1021.3
20260905170034 54 67 0.0 1.0 0.00 0.03 0.00 98 1021.3
20260905164607 54 67 0.0 2.0 0.00 0.03 0.00 99 1021.3
20260905163034 53 111 1.0 3.0 0.00 0.03 0.00 99 1021.3
20260905161534 52 107 1.0 2.0 0.00 0.03 0.00 99 1021.3
20260905160031 51 96 1.0 3.0 0.00 0.03 0.00 99 1021.4
20260905150105 49 161 0.0 3.0 0.00 0.03 0.00 98 1021.2
20260905144535 49 157 1.0 4.0 0.00 0.03 0.00 98 1021.1
20260905143036 49 115 1.0 3.0 0.00 0.03 0.00 98 1021.1
20260905141537 48 182 1.0 4.0 0.00 0.03 0.00 98 1021.0
20260905140031 47 143 1.0 3.0 0.00 0.03 0.00 98 1020.9
20260905131534 48 154 2.0 4.0 0.00 0.03 0.00 98 1020.6
20260905130036 49 176 2.0 4.0 0.00 0.03 0.00 98 1020.5
20260905124540 49 165 1.0 2.0 0.00 0.04 0.00 98 1020.5
20260905123033 49 165 1.0 4.0 0.00 0.04 0.00 98 1020.6
20260905121531 49 160 1.0 3.0 0.00 0.04 0.00 98 1020.5
20260905120107 49 148 1.0 3.0 0.00 0.04 0.00 98 1020.5
20260905114539 49 161 0.0 3.0 0.00 0.04 0.00 98 1020.4
20260905113105 49 157 0.0 0.0 0.00 0.04 0.00 98 1020.3
20260905111537 49 157 0.0 1.0 0.00 0.04 0.00 98 1020.3
20260905110036 49 179 1.0 4.0 0.00 0.04 0.00 97 1020.3
20260905101557 50 202 0.0 0.0 0.00 0.05 0.00 97 1020.2
20260905100032 50 202 0.0 0.0 0.00 0.05 0.00 97 1020.3